Hourly Data Report for October 19, 2015

All times are specified in Local Standard Time (LST). Add 1 hour to adjust for Daylight Saving Time where and when it is observed.

IQALUIT CLIMATE
NUNAVUT

63°44'50.000" N
68°32'40.000" W
33.50 m
2402592
71321
XFB

Download Data

Hourly Data (October 2015)
Hourly Data Report for October 19, 2015
Temp Definition
°C
Dew Point Temp Definition
°C
Rel Hum Definition
%
Wind Dir Definition
10's deg

Wind Spd Definition
km/h
Visibility Definition
km
Stn Press Definition
kPa
Hmdx Definition


Wind Chill Definition


Weather Definition


TIME
00:00 -4.0 -7.9 74 21 6   100.70   -7 LegendNANA
01:00 -4.5 -7.6 78 12 4   100.68   -6 LegendNANA
02:00 -4.1 -8.0 74 18 8   100.64   -8 LegendNANA
03:00 -4.0 -7.5 77 13 14   100.59   -9 LegendNANA
04:00 -3.8 -7.7 74 13 17   100.57   -10 LegendNANA
05:00 -4.2 -7.8 76 11 21   100.53   -11 LegendNANA
06:00 -4.1 -7.5 77 12 19   100.48   -10 LegendNANA
07:00 -3.3 -7.3 74 15 20   100.44   -9 LegendNANA
08:00 -3.2 -6.9 75 16 21   100.40   -9 LegendNANA
09:00 -3.0 -8.0 68 16 25   100.33   -10 LegendNANA
10:00 -3.0 -7.8 69 15 26   100.25   -10 LegendNANA
11:00 -2.7 -7.9 67 16 27   100.19   -10 LegendNANA
12:00 -2.1 -7.5 66 15 27   100.13   -9 LegendNANA
13:00 -2.4 -7.3 69 14 29   100.07   -9 LegendNANA
14:00 -2.6 -8.2 65 14 38   100.03   -11 LegendNANA
15:00 -2.7 -7.9 67 14 36   99.99   -11 LegendNANA
16:00 -3.3 -8.1 69 13 33   99.99   -11 LegendNANA
17:00 -4.3 -8.9 70 11 28   99.98   -12 LegendNANA
18:00 -4.4 -9.6 67 11 22   99.94   -11 LegendNANA
19:00 -4.2 -9.5 66 11 30   99.90   -12 LegendNANA
20:00 -4.2 -9.2 68 12 31   99.89   -12 LegendNANA
21:00 -4.3 -9.3 68 11 29   99.84   -12 LegendNANA
22:00 -4.0 -9.1 68 11 26   99.83   -11 LegendNANA
23:00 -4.1 -8.9 69 10 24   99.81   -11 LegendNANA

Notes on Data Quality.

Legend

  • E = Estimated
  • M = Missing
  • NA = Not Available
  • ‡ = Partner data that is not subject to review by the National Climate Archives
Date modified: